File outlier.log content, last update Tuesday September 20 2022, 16:23:02


Tue, 20 Sep 2022 03:13:02 +0900 [1663611126 Temp=-1.92*C Humidity=0.00% Pressure=761235.19Pa] -> temperature outlier [-1.92].
Tue, 20 Sep 2022 03:13:02 +0900 [1663611126 Temp=-1.92*C Humidity=0.00% Pressure=761235.19Pa] -> humidity outlier [0.00].
Tue, 20 Sep 2022 03:13:02 +0900 [1663611126 Temp=-1.92*C Humidity=0.00% Pressure=761235.19Pa] -> pressure outlier [761235.19].
Tue, 20 Sep 2022 03:17:01 +0900 [1663611366 Temp=-2.00*C Humidity=39.80% Pressure=36737474560.00Pa] -> humidity outlier [39.80].
Tue, 20 Sep 2022 03:18:01 +0900 [1663611426 Temp=-2.00*C Humidity=0.00% Pressure=6992487424.00Pa] -> humidity outlier [0.00].
Tue, 20 Sep 2022 03:19:01 +0900 [1663611486 Temp=-2.00*C Humidity=46.92% Pressure=nanPa] -> humidity outlier [46.92].
Tue, 20 Sep 2022 03:20:01 +0900 [1663611546 Temp=-1.98*C Humidity=0.00% Pressure=768011328.00Pa] -> humidity outlier [0.00].
Tue, 20 Sep 2022 03:50:02 +0900 [1663613346 Temp=-1.60*C Humidity=42.41% Pressure=27079928.00Pa] -> humidity outlier [42.41].
Tue, 20 Sep 2022 03:52:02 +0900 [1663613467 Temp=-20.89*C Humidity=0.00% Pressure=55756.48Pa] -> temperature outlier [-20.89].
Tue, 20 Sep 2022 03:52:02 +0900 [1663613467 Temp=-20.89*C Humidity=0.00% Pressure=55756.48Pa] -> humidity outlier [0.00].
Tue, 20 Sep 2022 03:53:01 +0900 [1663613526 Temp=-2.04*C Humidity=0.00% Pressure=1246464.00Pa] -> temperature outlier [-2.04].
Tue, 20 Sep 2022 03:53:01 +0900 [1663613526 Temp=-2.04*C Humidity=0.00% Pressure=1246464.00Pa] -> pressure outlier [1246464.00].
Tue, 20 Sep 2022 04:35:01 +0900 [1663616046 Temp=125.50*C Humidity=0.00% Pressure=-293211.19Pa] -> temperature outlier [125.50].
Tue, 20 Sep 2022 12:40:01 +0900 [1663645147 Temp=-51.50*C Humidity=4.03% Pressure=1610666.75Pa] -> temperature outlier [-51.50].
Tue, 20 Sep 2022 12:41:01 +0900 [1663645206 Temp=-2.00*C Humidity=0.00% Pressure=nanPa] -> temperature outlier [-2.00].
Tue, 20 Sep 2022 12:42:01 +0900 [1663645266 Temp=-2.00*C Humidity=0.00% Pressure=nanPa] -> temperature outlier [-2.00].
Tue, 20 Sep 2022 14:01:01 +0900 [1663650006 Temp=-7.42*C Humidity=0.00% Pressure=76508.08Pa] -> temperature outlier [-7.42].
Tue, 20 Sep 2022 14:44:02 +0900 [1663652586 Temp=401.23*C Humidity=-0.00% Pressure=2917565952.00Pa] -> temperature outlier [401.23].
Tue, 20 Sep 2022 14:46:01 +0900 [1663652706 Temp=4.40*C Humidity=0.00% Pressure=12521275.00Pa] -> temperature outlier [4.40].
Tue, 20 Sep 2022 14:47:02 +0900 [1663652766 Temp=-2.00*C Humidity=0.00% Pressure=30217942.00Pa] -> temperature outlier [-2.00].
Tue, 20 Sep 2022 14:52:01 +0900 [1663653067 Temp=-2.00*C Humidity=39.45% Pressure=nanPa] -> humidity outlier [39.45].
Tue, 20 Sep 2022 14:53:01 +0900 [1663653126 Temp=-2.00*C Humidity=0.00% Pressure=nanPa] -> humidity outlier [0.00].
Tue, 20 Sep 2022 15:02:01 +0900 [1663653666 Temp=99.58*C Humidity=0.00% Pressure=34465.89Pa] -> temperature outlier [99.58].
Tue, 20 Sep 2022 15:05:01 +0900 [1663653846 Temp=-2.00*C Humidity=0.00% Pressure=nanPa] -> temperature outlier [-2.00].
Tue, 20 Sep 2022 15:10:01 +0900 [1663654146 Temp=777.66*C Humidity=0.00% Pressure=26740.50Pa] -> temperature outlier [777.66].
Tue, 20 Sep 2022 15:21:01 +0900 [1663654806 Temp=-206.79*C Humidity=0.00% Pressure=-1934255.75Pa] -> temperature outlier [-206.79].
Tue, 20 Sep 2022 15:21:01 +0900 [1663654806 Temp=-206.79*C Humidity=0.00% Pressure=-1934255.75Pa] -> pressure outlier [-1934255.75].
Tue, 20 Sep 2022 15:24:01 +0900 [1663654986 Temp=-2.00*C Humidity=100.00% Pressure=nanPa] -> humidity outlier [100.00].
Tue, 20 Sep 2022 15:26:01 +0900 [1663655106 Temp=-2.00*C Humidity=0.00% Pressure=nanPa] -> humidity outlier [0.00].
Tue, 20 Sep 2022 15:28:01 +0900 [1663655226 Temp=11.62*C Humidity=11.73% Pressure=14180573.00Pa] -> temperature outlier [11.62].
Tue, 20 Sep 2022 15:29:01 +0900 [1663655286 Temp=-2.00*C Humidity=0.00% Pressure=nanPa] -> temperature outlier [-2.00].
Tue, 20 Sep 2022 15:30:01 +0900 [1663655346 Temp=-2.00*C Humidity=100.00% Pressure=100002.16Pa] -> humidity outlier [100.00].
Tue, 20 Sep 2022 15:31:02 +0900 [1663655406 Temp=0.98*C Humidity=-0.00% Pressure=1484962.75Pa] -> humidity outlier [-0.00].
Tue, 20 Sep 2022 15:31:02 +0900 [1663655406 Temp=0.98*C Humidity=-0.00% Pressure=1484962.75Pa] -> pressure outlier [1484962.75].
Tue, 20 Sep 2022 15:33:01 +0900 [1663655526 Temp=73.40*C Humidity=0.00% Pressure=-101833456.00Pa] -> temperature outlier [73.40].
Tue, 20 Sep 2022 15:33:01 +0900 [1663655526 Temp=73.40*C Humidity=0.00% Pressure=-101833456.00Pa] -> pressure outlier [-101833456.00].
Tue, 20 Sep 2022 15:34:01 +0900 [1663655587 Temp=-1.91*C Humidity=0.66% Pressure=infPa] -> temperature outlier [-1.91].
Tue, 20 Sep 2022 15:36:01 +0900 [1663655706 Temp=-2.00*C Humidity=0.00% Pressure=infPa] -> temperature outlier [-2.00].
Tue, 20 Sep 2022 16:23:01 +0900 [1663658526 Temp=26.41*C Humidity=77.79% Pressure=99414.85Pa] -> temperature outlier [26.41].
Tue, 20 Sep 2022 16:23:02 +0900 [1663658526 Temp=26.41*C Humidity=77.79% Pressure=99414.85Pa] -> humidity outlier [77.79].
Showing last 40 lines from file [/srv/app/pi-web01/chroot/pi-ws01/log/outlier.log] (972 total lines).

Station Logs

File Name
sensor.txt
backup.txt
outage.log
outlier.log
rrd.log
pi-solar.log
Display Limit